Weather reports worldwide

Advertisment
Tarbes/Ossun, France (7621): temperature & dewpoint: 15.05.2019 13:00:00 - 21.05.2019 13:00:00 (CEST)Tarbes/Ossun, France (7621): temperature 5cm: 15.05.2019 13:00:00 - 21.05.2019 13:00:00 (CEST)Tarbes/Ossun, France (7621): temperature -20cm & temperature -100cm: 15.05.2019 13:00:00 - 21.05.2019 13:00:00 (CEST)Tarbes/Ossun, France (7621): wind speed & gusts: 15.05.2019 13:00:00 - 21.05.2019 13:00:00 (CEST)Tarbes/Ossun, France (7621): wind direction: 15.05.2019 13:00:00 - 21.05.2019 13:00:00 (CEST)Tarbes/Ossun, France (7621): reduced air pressure: 15.05.2019 13:00:00 - 21.05.2019 13:00:00 (CEST)Tarbes/Ossun, France (7621): visibility: 15.05.2019 13:00:00 - 21.05.2019 13:00:00 (CEST)Tarbes/Ossun, France (7621): sunshine duration: 15.05.2019 13:00:00 - 21.05.2019 13:00:00 (CEST)Tarbes/Ossun, France (7621): precipitation: 15.05.2019 13:00:00 - 21.05.2019 13:00:00 (CEST)
Date & Time tt [°C] td [°C] tt 5cm [°C] tt -20cm [°C] tt -100cm [°C] ff [km/h] ff [kn] fx [km/h] fx [kn] dd ppp [hPa] vv [km] sd [min] rr [mm]
21.05.2019 13:00:00 16,7 11,6 23,0 13,8 13,0 9 5 22 12 N 1018,2 20 28 0,0
21.05.2019 12:00:00 14,4 9,2 23,4 13,9 13,0 7 4 21 12 NW 1018,6 18 21 0,0
21.05.2019 11:00:00 13,6 10,4 16,4 13,9 13,0 7 4 13 7 NW 1018,7 16 0 0,0
21.05.2019 10:00:00 11,7 10,3 15,3 13,9 13,0 4 2 13 7 N 1019,0 13 0 0,0
21.05.2019 09:00:00 10,6 10,0 12,9 14,0 13,0 5 3 11 6 W 1018,8 14 0 0,0
21.05.2019 08:00:00 10,2 10,2 10,1 14,1 13,0 4 2 9 5 NW 1018,4 8 0 0,0
21.05.2019 07:00:00 9,0 9,0 8,1 14,1 13,0 0 0 5 3 N 1018,1 9 0 0,0
21.05.2019 06:00:00 9,0 9,0 6,1 14,2 13,0 3 2 6 3 SSW 1017,8 10 0 0,0
21.05.2019 05:00:00 8,1 7,8 5,2 14,2 13,0 5 3 7 4 S 1017,7 0,3 0 0,0
21.05.2019 04:00:00 9,0 9,0 6,5 14,3 13,0 4 2 9 5 SSE 1017,4 16 0 0,0
21.05.2019 03:00:00 8,2 7,9 6,0 14,3 13,0 8 5 10 6 S 1017,6 7 0 0,0
21.05.2019 02:00:00 9,0 8,4 7,5 14,3 13,0 8 4 9 5 S 1017,9 9 0 0,0
21.05.2019 01:00:00 10,6 10,0 9,2 14,4 13,0 6 4 9 5 S 1017,7 12 0 0,0
21.05.2019 00:00:00 11,2 10,6 11,6 14,3 13,0 6 4 10 5 S 1017,8 21 0 0,0
20.05.2019 23:00:00 11,5 10,4 11,7 14,3 13,0 8 4 11 6 SSW 1017,7 18 0 0,0
20.05.2019 22:00:00 12,4 8,7 12,2 14,3 13,0 3 2 15 8 W 1016,7 18 0 0,0
20.05.2019 21:00:00 13,5 9,2 14,1 14,2 13,0 10 6 27 15 NW 1016,0 48 33 0,0
20.05.2019 20:00:00 13,9 10,1 14,2 14,1 13,0 16 9 24 13 NNW 1015,3 19 0 0,0
20.05.2019 19:00:00 15,1 9,7 17,8 13,9 13,0 14 7 42 23 WNW 1014,9 36 0 0,0
20.05.2019 18:00:00 16,5 9,9 21,7 13,8 13,0 20 11 32 18 NW 1014,3 40 17 0,0
20.05.2019 17:00:00 16,1 8,6 25,6 13,6 13,0 15 8 27 15 NW 1014,2 44 12 0,0
20.05.2019 16:00:00 16,7 8,4 32,9 13,5 13,0 11 6 33 18 WNW 1014,4 19 47 0,0
20.05.2019 15:00:00 16,6 8,8 31,2 13,4 13,0 12 7 27 14 W 1014,7 36 49 0,0
20.05.2019 14:00:00 16,1 10,6 28,9 13,4 13,0 14 8 27 15 W 1015,0 30 47 0,0
20.05.2019 13:00:00 15,0 11,0 20,2 13,4 13,0 15 8 42 23 W 1015,5 20 38 0,0
20.05.2019 12:00:00 12,4 10,1 14,7 13,4 13,0 12 7 22 12 W 1016,0 20 0 0,2
20.05.2019 11:00:00 11,0 9,3 14,0 13,5 13,0 10 5 21 11 WSW 1016,3 20 0 0,0
20.05.2019 10:00:00 10,0 8,6 11,7 13,5 13,1 10 5 23 12 WSW 1016,4 14 0 0,0
20.05.2019 09:00:00 9,7 8,9 10,8 13,5 13,0 11 6 21 11 SW 1015,9 17 0 0,6
20.05.2019 08:00:00 9,6 8,2 9,6 13,5 13,0 7 4 14 7 WSW 1015,5 20 0 0,0
20.05.2019 07:00:00 9,2 8,0 9,5 13,6 13,0 7 4 18 10 S 1015,1 26 0 0,0
20.05.2019 06:00:00 9,5 7,8 9,5 13,6 13,0 9 5 22 12 W 1014,6 28 0 0,0
20.05.2019 05:00:00 9,6 8,2 9,8 13,7 13,0 11 6 21 12 WSW 1014,7 28 0 0,0
20.05.2019 04:00:00 9,5 8,9 9,7 13,7 13,1 11 6 27 14 SW 1014,9 7 0 1,6
20.05.2019 03:00:00 9,7 8,9 9,9 13,7 13,0 16 9 28 15 WSW 1015,1 3,6 0 0,8
20.05.2019 02:00:00 9,9 9,1 10,2 13,8 13,0 18 10 28 15 WSW 1015,3 6 0 0,6
20.05.2019 01:00:00 9,9 9,1 9,7 13,9 13,1 13 7 25 14 WSW 1015,8 9 0 0,2
20.05.2019 00:00:00 9,8 9,0 8,5 13,9 13,1 13 7 23 12 WSW 1015,7 18 0 0,0
19.05.2019 23:00:00 9,9 8,8 9,4 13,9 13,0 15 8 31 17 WSW 1015,8 25 0 0,2
19.05.2019 22:00:00 10,0 9,2 10,1 13,9 13,0 21 11 31 17 WSW 1014,8 2,9 0 2,5
19.05.2019 21:00:00 9,9 9,1 10,0 13,9 13,0 18 10 34 19 WSW 1014,4 2,5 0 3,8
19.05.2019 20:00:00 10,2 8,6 10,7 13,9 13,0 19 10 30 16 WSW 1013,8 8 0 0,4
19.05.2019 19:00:00 10,7 8,1 11,8 13,9 13,0 20 11 38 20 WSW 1013,4 19 0 0,0
19.05.2019 18:00:00 11,1 8,1 14,2 13,8 13,0 16 9 44 24 WSW 1013,3 44 0 0,0
19.05.2019 17:00:00 11,9 7,8 17,7 13,8 13,0 23 12 46 25 WSW 1012,9 45 11 0,0
19.05.2019 16:00:00 13,0 7,7 19,9 13,7 13,0 26 14 50 27 W 1012,4 44 3 0,0
19.05.2019 15:00:00 12,3 7,0 21,3 13,7 13,0 27 14 45 24 WSW 1012,3 40 2 0,0
19.05.2019 14:00:00 12,8 7,7 22,7 13,7 13,0 25 13 45 24 WSW 1012,0 45 5 0,0
19.05.2019 13:00:00 12,2 7,9 19,8 13,7 13,0 26 14 39 21 WSW 1011,7 52 0 0,0
19.05.2019 12:00:00 11,2 7,5 18,6 13,7 13,0 21 11 38 20 WSW 1011,7 56 0 0,0
19.05.2019 11:00:00 11,5 7,2 18,0 13,7 13,0 21 12 34 18 W 1011,4 60 6 0,0
19.05.2019 10:00:00 11,4 7,5 14,2 13,8 13,0 16 8 27 14 W 1011,1 56 0 0,0
19.05.2019 09:00:00 10,6 7,1 10,2 13,8 13,0 11 6 22 12 WSW 1010,8 44 2 0,0
19.05.2019 08:00:00 9,5 6,6 9,1 13,8 13,0 8 5 15 8 WSW 1010,7 60 24 0,0
19.05.2019 07:00:00 8,6 6,0 8,7 13,9 13,0 6 3 13 7 W 1010,8 14 0 0,0
19.05.2019 06:00:00 8,9 6,2 8,6 13,9 13,0 10 5 21 11 W 1010,5 60 0 0,0
19.05.2019 05:00:00 8,8 5,7 7,9 14,0 13,0 11 6 26 14 W 1010,2 60 0 0,0
19.05.2019 04:00:00 8,8 5,5 8,2 14,1 13,0 10 6 23 13 WSW 1010,2 60 0 0,0
19.05.2019 03:00:00 9,4 5,8 9,2 14,1 13,0 14 8 25 13 WSW 1010,3 60 0 0,0
19.05.2019 02:00:00 9,4 6,5 9,1 14,2 13,1 13 7 25 14 WSW 1010,8 60 0 0,0
19.05.2019 01:00:00 9,4 6,1 9,2 14,2 13,0 9 5 22 12 WSW 1011,2 60 0 0,0
19.05.2019 00:00:00 8,4 6,9 9,0 14,2 13,0 8 5 14 8 SSW 1011,5 60 0 0,0
18.05.2019 23:00:00 8,3 6,4 8,8 14,2 13,0 11 6 25 14 SW 1012,0 17 0 0,2
18.05.2019 22:00:00 8,6 5,9 8,9 14,2 13,0 18 10 28 15 WSW 1012,0 41 0 0,0
18.05.2019 21:00:00 9,5 5,7 10,5 14,1 13,0 17 9 42 23 W 1011,9 60 0 0,0
18.05.2019 20:00:00 10,6 6,2 13,7 14,1 13,0 23 12 39 21 W 1011,2 31 15 0,0
18.05.2019 19:00:00 11,5 6,8 15,6 14,0 13,0 23 13 37 20 W 1010,6 37 0 0,0
18.05.2019 18:00:00 12,0 7,3 24,7 13,9 13,0 23 12 42 23 W 1010,2 27 43 0,0
18.05.2019 17:00:00 12,6 6,6 22,4 13,8 13,0 24 13 47 26 W 1009,8 31 40 0,0
18.05.2019 16:00:00 11,6 8,4 16,5 13,7 13,0 29 15 47 25 W 1010,1 37 5 0,0
18.05.2019 15:00:00 12,3 6,6 22,5 13,7 13,0 24 13 46 25 WNW 1009,7 31 21 0,0
18.05.2019 14:00:00 13,6 7,8 24,8 13,6 13,0 35 19 51 27 W 1009,2 20 45 0,0
18.05.2019 13:00:00 13,9 7,4 24,3 13,6 13,0 28 15 47 26 WNW 1008,9 23 53 0,0
18.05.2019 12:00:00 13,3 6,9 18,6 13,6 13,0 32 17 47 25 WNW 1009,0 28 56 0,0
18.05.2019 11:00:00 12,3 6,3 16,1 13,6 13,0 27 15 46 25 W 1009,4 29 58 0,0
18.05.2019 10:00:00 11,6 6,1 12,3 13,7 13,0 18 10 34 18 W 1009,6 31 49 0,0
18.05.2019 09:00:00 10,6 6,5 9,7 13,7 13,0 16 9 24 13 W 1009,5 52 41 0,0
18.05.2019 08:00:00 8,7 6,8 8,6 13,8 13,0 7 4 25 14 SSW 1010,0 50 8 0,0
18.05.2019 07:00:00 8,4 6,4 8,4 13,8 13,0 11 6 29 16 WSW 1010,0 56 0 0,0
18.05.2019 06:00:00 8,7 6,1 7,6 13,9 13,0 14 7 32 17 W 1009,7 60 0 0,0
18.05.2019 05:00:00 8,8 6,2 8,6 13,9 13,0 14 8 29 16 WSW 1009,8 60 0 0,0
18.05.2019 04:00:00 8,7 6,8 8,3 14,0 13,0 18 10 42 23 WSW 1010,1 58 0 0,0
18.05.2019 03:00:00 8,9 6,7 8,0 14,1 13,0 16 8 40 21 WSW 1010,5 60 0 0,0
18.05.2019 02:00:00 8,9 6,9 8,4 14,1 13,0 19 10 39 21 WSW 1010,9 55 0 0,0
18.05.2019 01:00:00 9,2 7,3 8,6 14,2 13,0 22 12 37 20 WSW 1011,1 43 0 0,0
18.05.2019 00:00:00 8,9 7,7 9,1 14,2 13,0 21 11 38 21 WSW 1011,2 18 0 1,0
17.05.2019 23:00:00 9,5 7,8 9,3 14,3 13,0 16 8 39 21 WSW 1011,0 25 0 0,2
17.05.2019 22:00:00 9,7 8,3 9,3 14,4 13,0 23 12 41 22 WSW 1010,7 26 0 2,0
17.05.2019 21:00:00 9,9 8,0 9,7 14,4 13,0 26 14 39 21 WSW 1009,9 12 0 1,2
17.05.2019 20:00:00 10,5 8,4 10,7 14,5 13,0 21 12 36 19 WSW 1009,4 15 0 0,2
17.05.2019 19:00:00 10,2 8,6 11,4 14,4 13,0 26 14 41 22 SW 1009,0 26 0 0,4
17.05.2019 18:00:00 10,6 8,4 11,6 14,4 13,0 25 13 45 24 WSW 1008,9 7 0 0,4
17.05.2019 17:00:00 11,1 9,2 12,1 14,5 12,9 19 10 40 21 WSW 1008,5 30 0 1,0
17.05.2019 16:00:00 10,8 9,6 13,5 14,5 12,9 24 13 38 21 WSW 1008,4 11 0 0,8
17.05.2019 15:00:00 10,7 9,9 12,8 14,5 12,9 18 10 42 23 W 1008,1 11 0 1,0
17.05.2019 14:00:00 10,4 9,3 12,8 14,6 12,9 16 9 34 18 WSW 1007,4 13 0 0,2
17.05.2019 13:00:00 10,9 9,3 15,2 14,7 13,0 23 12 39 21 W 1006,6 16 0 0,2
17.05.2019 12:00:00 10,5 9,4 12,7 14,7 12,9 21 11 33 18 W 1005,6 9 0 0,6
17.05.2019 11:00:00 10,1 8,9 11,9 14,8 12,9 23 12 35 19 WSW 1005,2 20 0 0,2
17.05.2019 10:00:00 9,5 8,6 10,7 14,9 13,0 17 9 36 19 WSW 1005,3 9 0 1,2
17.05.2019 09:00:00 9,6 9,0 11,0 15,0 12,9 16 9 27 15 W 1004,9 9 0 0,4
17.05.2019 08:00:00 9,7 9,2 10,3 15,1 13,0 12 7 29 16 W 1004,3 14 0 1,2
17.05.2019 07:00:00 10,0 9,5 10,2 15,1 12,9 14 8 29 16 W 1003,6 6 0 3,4
17.05.2019 06:00:00 10,4 9,6 10,6 15,2 13,0 19 10 35 19 WSW 1003,4 7 0 3,9
17.05.2019 05:00:00 10,7 10,1 11,2 15,3 12,9 9 5 30 16 WNW 1003,4 3,7 0 2,4
17.05.2019 04:00:00 11,3 10,8 12,0 15,3 12,9 16 9 23 12 WNW 1003,4 6 0 0,0
17.05.2019 03:00:00 11,3 10,8 11,9 15,4 12,9 11 6 23 12 NW 1004,3 7 0 2,0
17.05.2019 02:00:00 11,7 10,9 12,3 15,4 12,9 11 6 19 11 NW 1005,0 10 0 0,0
17.05.2019 01:00:00 11,9 11,3 12,3 15,4 12,9 8 4 23 13 NW 1005,8 10 0 0,0
17.05.2019 00:00:00 12,0 11,2 12,4 15,4 12,9 13 7 22 12 W 1006,9 5 0 2,8
16.05.2019 23:00:00 12,5 11,4 12,7 15,4 12,9 8 5 25 13 SSW 1007,7 5 0 1,2
16.05.2019 22:00:00 13,2 11,8 13,0 15,4 12,9 15 8 38 20 WSW 1007,8 11 0 0,4
16.05.2019 21:00:00 15,2 11,2 14,6 15,3 12,9 29 16 50 27 W 1007,2 18 0 0,0
16.05.2019 20:00:00 18,3 7,1 16,7 15,2 12,9 15 8 25 14 N 1005,3 31 39 0,0
16.05.2019 19:00:00 21,3 7,9 28,3 15,0 12,9 16 9 25 13 N 1005,2 38 60 0,0
16.05.2019 18:00:00 22,0 6,6 35,4 14,8 12,9 12 7 22 12 NNE 1005,2 40 58 0,0
16.05.2019 17:00:00 21,7 7,1 35,1 14,7 12,9 12 6 32 18 NNE 1005,8 27 35 0,0
16.05.2019 16:00:00 21,9 7,3 35,0 14,5 12,9 13 7 32 17 NNE 1006,3 45 39 0,0
16.05.2019 15:00:00 21,7 6,4 34,6 14,4 12,8 10 5 26 14 N 1007,0 46 36 0,0
16.05.2019 14:00:00 21,8 5,2 34,5 14,3 12,9 10 6 25 13 NNE 1007,5 20 43 0,0
16.05.2019 13:00:00 21,4 5,3 35,9 14,3 12,9 8 4 19 10 N 1008,2 29 54 0,0
16.05.2019 12:00:00 20,6 5,4 29,5 14,3 12,9 10 5 21 11 N 1009,0 60 58 0,0
16.05.2019 11:00:00 19,7 7,1 18,1 14,3 12,8 6 3 16 9 N 1009,6 20 60 0,0
16.05.2019 10:00:00 16,9 7,0 13,5 14,5 12,9 4 2 12 6 SW 1010,4 19 58 0,0
16.05.2019 09:00:00 12,3 7,4 6,8 14,6 12,9 9 5 14 7 S 1011,7 33 43 0,0
16.05.2019 08:00:00 8,4 6,0 2,0 14,7 12,9 11 6 14 8 S 1012,2 47 33 0,0
16.05.2019 07:00:00 4,9 4,0 1,3 14,9 12,9 8 5 10 5 S 1012,9 49 1 0,0
16.05.2019 06:00:00 5,2 3,8 1,6 15,0 12,8 4 2 8 5 S 1012,8 52 0 0,0
16.05.2019 05:00:00 5,8 4,1 1,9 15,1 12,8 6 4 8 4 S 1013,1 39 0 0,0
16.05.2019 04:00:00 6,4 4,4 2,7 15,2 12,8 6 4 10 6 S 1013,8 35 0 0,0
16.05.2019 03:00:00 7,9 4,3 3,6 15,3 12,8 5 3 12 6 SSE 1014,4 36 0 0,0
16.05.2019 02:00:00 9,1 5,1 4,1 15,4 12,8 10 5 12 6 S 1014,7 34 0 0,0
16.05.2019 01:00:00 9,7 5,5 4,8 15,5 12,9 9 5 12 6 SSE 1014,9 33 0 0,0
16.05.2019 00:00:00 10,0 5,6 5,3 15,5 12,8 8 4 11 6 S 1015,4 34 0 0,0
15.05.2019 23:00:00 11,6 6,1 6,5 15,5 12,8 5 3 9 5 S 1015,2 34 0 0,0
15.05.2019 22:00:00 14,8 4,8 8,0 15,4 12,8 6 3 10 5 ESE 1014,5 34 0 0,0
15.05.2019 21:00:00 16,8 4,8 11,7 15,4 12,8 8 4 21 11 N 1014,3 40 36 0,0
15.05.2019 20:00:00 19,4 3,9 16,7 15,2 12,8 16 9 25 14 N 1013,6 33 60 0,0
15.05.2019 19:00:00 20,6 4,6 27,7 15,0 12,8 14 7 23 13 N 1013,3 41 60 0,0
15.05.2019 18:00:00 21,6 4,2 39,3 14,8 12,8 13 7 29 16 NNE 1013,0 57 60 0,0
15.05.2019 17:00:00 21,8 5,2 41,7 14,6 12,8 18 10 31 17 NNE 1013,1 60 60 0,0
15.05.2019 16:00:00 22,3 7,7 40,6 14,5 12,8 13 7 28 15 NNW 1013,0 47 60 0,0
15.05.2019 15:00:00 21,9 6,9 40,6 14,3 12,8 11 6 28 15 N 1013,3 47 60 0,0
15.05.2019 14:00:00 21,4 6,9 39,3 14,3 12,8 10 5 26 14 NNW 1013,7 30 60 0,0
15.05.2019 13:00:00 20,3 8,9 37,8 14,2 12,8 11 6 21 11 N 1014,0 20 60 0,0

tt = temperature
td = dewpoint
tt 5cm = temperature 5cm
tt -20cm = temperature -20cm
tt -100cm = temperature -100cm
ff = wind speed
fx = gusts
dd = wind direction
ppp = reduced air pressure
vv = visibility
sd = sunshine duration
rr = precipitation

Next stations